Find Starlink 31115

NORAD ID: 58729 Int'l Des: 2024-005 Owner: SPXS Country: US Constellation: starlink operational
LEOCIRCULAR

Live Position

Loading 3D Globe...

About Starlink 31115

Description loading...

Upcoming Passes

Passes for default location (London). Set your location on the main map for personalized predictions.

Altitude History

Loading altitude history...

Two-Line Element Set

1 58729U 24005B 26122.46837949 -.00000756 00000-0 -17947-4 0 9997
2 58729 42.9993 276.4372 0001162 283.2035 76.8687 15.27568308128652
Epoch: May 2, 2026 • Age: 5 hours

Current Status

Altitude 483.1 km
Velocity 7.63 km/s
Sub-Earth Point 24.09°N, 158.44°W
Launch Date Jan 7, 2024
Age 2.3 years
Type internet

Technical Details

Classification Payload
Mass 730.00 kg
Dry Mass 700.00 kg
Total Mass 730.00 kg
Length 0.30 m
Diameter 4.10 m
Span 29.00 m
Shape Box + pan
Manufacturer SPXS
Bus Type Starlink V2M
Phase Status In Orbit
Owner/State SPXS/US

Most Searched